Location: Berkeley
(37.8716°N, 122.2727°W)
Time: 16:26:13
(UTC-07:00)

Envisat - Pass Details

Date: 15 May 2026
Orbit: 761 x 763 km, 98.4° (Epoch: 7 June)

Event Time Altitude Azimuth Distance (km) Brightness Sun altitude
Rises 03:35:45 0° 15° (NNE) 3,229 7.3 -23.1°
Reaches altitude 10° 03:38:04 10° 17° (NNE) 2,299 6.4 -22.8°
Maximum altitude 03:43:08 73° 102° (ESE) 796 3.1 -22.2°
Enters shadow 03:44:51 42° 176° (S) 1,084 3.4 -22.0°
